Hourly Data Report for February 07, 2018

MIRAMICHI RCS
NEW BRUNSWICK

47°00'34.000" N
65°27'54.000" W
33.00 m
8100989
71744
ACQ

Download Data

Hourly Data (February 2018)
Hourly Data Report for February 7, 2018
TIME
LST
Temp Definition
°C
Dew Point Definition
°C
Rel Hum Definition
%
Precip. Amount Definition
mm

Wind Dir Definition
10's deg

Wind Spd Definition
km/h
Visibility Definition
km
Stn Press Definition
kPa
Hmdx Definition


Wind Chill Definition


Weather Definition


00:00 -13.8 -15.4 87 0.0 25 7   102.51   -18 LegendNANA
01:00 -12.4 -14.4 85 0.0 28 9   102.58   -18 LegendNANA
02:00 -12.6 -14.8 83 0.0 26 9   102.66   -18 LegendNANA
03:00 -13.4 -15.4 85 0.0 27 10   102.72   -19 LegendNANA
04:00 -14.7 -16.6 85 0.0 27 9   102.77   -20 LegendNANA
05:00 -14.8 -16.7 85 0.0 26 10   102.85   -21 LegendNANA
06:00 -15.6 -17.7 84 0.0 27 8   102.90   -21 LegendNANA
07:00 -15.8 -17.6 86 0.0 29 8   102.93   -21 LegendNANA
08:00 -16.2 -18.4 83 0.0 22 3   103.07   -18 LegendNANA
09:00 -14.3 -16.8 81 0.0 26 6   103.17   -18 LegendNANA
10:00 -11.8 -15.0 77 0.0 24 5   103.14   -15 LegendNANA
11:00 -9.2 -13.9 68 0.0   0   103.09     LegendNANA
12:00 -8.0 -14.9 58 0.0 0 1   102.94   -9 LegendNANA
13:00 -7.7 -14.6 58 0.0 14 2   102.88   -9 LegendNANA
14:00 -7.4 -14.7 56 0.0 10 3   102.79   -9 LegendNANA
15:00 -7.2 -13.4 61 0.0 13 6   102.72   -10 LegendNANA
16:00 -8.0 -10.4 83 0.0 14 3   102.65   -10 LegendNANA
17:00 -8.8 -10.7 86 0.9 6 12   102.48   -14 LegendNANA
18:00 -8.6 -10.1 89 0.6 8 12   102.40   -14 LegendNANA
19:00 -8.7 -10.3 88 0.6 6 13   102.25   -15 LegendNANA
20:00 -8.6 -10.0 89 1.1 6 8   102.13   -13 LegendNANA
21:00 -8.2 -9.5 90 0.9 6 11   101.84   -13 LegendNANA
22:00 -7.6 -8.9 90 1.5 6 15   101.52   -14 LegendNANA
23:00 -6.8 -8.1 91 2.0 5 23   101.14   -14 LegendNANA

Notes on Data Quality.

Legend

  • E = Estimated
  • M = Missing
  • NA = Not Available*
  • [empty] = Indicates an unobserved value
Date modified: